Pascagoula, MS

6:01 AM CDT on May 27, 2017 (GMT -0500)
Lott International

Weather History for KPQL - January, 2013

Change the Weather History Date:

Monday, January 14, 2013

  Actual Average Record
Temperature  
Mean Temperature 54 °F -  
Max Temperature 63 °F 57 °F 77 °F (2017)
Min Temperature 44 °F 37 °F 19 °F (2011)
Degree Days  
Heating Degree Days 12    
Growing Degree Days 4 (Base 50)    
Moisture  
Dew Point 52 °F    
Average Humidity 93    
Maximum Humidity 100    
Minimum Humidity 84    
Precipitation  
Precipitation 0.00 in - - ()
Sea Level Pressure  
Sea Level Pressure 30.07 in    
Wind  
Wind Speed 8 mph (North)    
Max Wind Speed 13 mph    
Max Gust Speed 18 mph    
Visibility 5 miles    
Events Rain    
Averages and records for this station are not official NWS values.
T = Trace of Precipitation, MM = Missing Value Source: NWS Daily Summary

Daily Weather History Graph

Daily Weather History Graph

Search for Another Location

Airport or City:

Trip Planner

Search our weather history database for the weather conditions in past years. The results will help you decide how hot, cold, wet, or windy it might be!

Date:

Astronomy

Jan. 14, 2013 Rise Set
Actual Time 6:51 AM CST 5:15 PM CST
Civil Twilight 6:25 AM CST 5:41 PM CST
Nautical Twilight 5:56 AM CST 6:10 PM CST
Astronomical Twilight 5:27 AM CST 6:39 PM CST
Moon 8:41 AM CST (1/14) 8:41 PM CST (1/14)
Length of Visible Light 11h 15m
Length of Day
10h 23m
Waxing Crescent, 11% of the Moon is Illuminated
Jan 14
Waxing Crescent
Jan 18
First Quarter
Jan 26
Full
Feb 3
Last Quarter
Feb 10
New

Hourly Weather History & Observations

Time (CST) Temp. Windchill Dew Point Humidity Pressure Visibility Wind Dir Wind Speed Gust Speed Precip Events Conditions
12:37 AM 60.8 °F - 57.2 °F 88% 30.03 in 10.0 mi North 5.8 mph - 0.00 in   Overcast
12:53 AM 60.1 °F - 57.9 °F 93% 30.04 in 10.0 mi NNW 10.4 mph - 0.00 in   Overcast
1:53 AM 59.0 °F - 57.0 °F 93% 30.04 in 10.0 mi North 6.9 mph - N/A   Overcast
2:53 AM 57.0 °F - 55.9 °F 96% 30.05 in 5.0 mi North 9.2 mph - N/A   Overcast
3:13 AM 57.2 °F - 55.4 °F 94% 30.04 in 4.0 mi North 9.2 mph - 0.00 in   Overcast
3:53 AM 55.9 °F - 54.0 °F 93% 30.04 in 5.0 mi North 12.7 mph - 0.00 in   Overcast
4:01 AM 55.4 °F - 53.6 °F 94% 30.04 in 7.0 mi North 9.2 mph 18.4 mph N/A   Overcast
4:53 AM 54.0 °F - 53.1 °F 97% 30.05 in 3.0 mi North 8.1 mph - N/A   Overcast
6:53 AM 50.0 °F - 48.0 °F 93% 30.09 in 10.0 mi North 8.1 mph - N/A   Overcast
7:53 AM 50.0 °F - 48.0 °F 93% 30.11 in 3.0 mi NNE 10.4 mph - N/A   Overcast
8:01 AM 50.0 °F - 48.2 °F 94% 30.11 in 2.0 mi NNE 6.9 mph - N/A   Overcast
12:19 PM 55.4 °F - 53.6 °F 94% 30.06 in 2.5 mi North 5.8 mph - N/A   Overcast
12:27 PM 55.4 °F - 53.6 °F 94% 30.05 in 4.0 mi North 4.6 mph - N/A   Overcast
12:53 PM 59.0 °F - 55.0 °F 87% 30.04 in 6.0 mi ENE 4.6 mph - N/A   Overcast
1:20 PM 60.8 °F - 57.2 °F 88% 30.03 in 9.0 mi ENE 3.5 mph - N/A   Overcast
1:53 PM 63.0 °F - 57.9 °F 84% 30.04 in 9.0 mi NNE 4.6 mph - N/A   Overcast
2:53 PM 60.1 °F - 55.9 °F 86% 30.05 in 5.0 mi North 8.1 mph - N/A   Overcast
3:12 PM 59.0 °F - 55.4 °F 88% 30.05 in 2.0 mi North 8.1 mph - N/A   Overcast
3:21 PM 59.0 °F - 55.4 °F 88% 30.05 in 2.0 mi North 9.2 mph - N/A   Overcast
4:00 PM 57.2 °F - 55.4 °F 94% 30.07 in 1.0 mi North 8.1 mph - N/A   Overcast
4:53 PM 55.0 °F - 54.0 °F 96% 30.09 in 1.0 mi North 11.5 mph - N/A   Overcast
5:00 PM 55.4 °F - 53.6 °F 94% 30.10 in 2.5 mi NNW 4.6 mph - 0.00 in Rain Light Rain
5:07 PM 53.6 °F - 53.6 °F 100% 30.10 in 3.0 mi North 11.5 mph - 0.00 in   Overcast
5:53 PM 52.0 °F - 50.0 °F 93% 30.12 in 8.0 mi North 9.2 mph - 0.00 in   Overcast
6:04 PM 51.8 °F - 50.0 °F 94% 30.11 in 10.0 mi North 11.5 mph - N/A   Overcast
6:53 PM 50.0 °F - 48.0 °F 93% 30.12 in 9.0 mi North 9.2 mph - N/A   Overcast
7:53 PM 48.0 °F - 46.0 °F 93% 30.11 in 6.0 mi North 10.4 mph - 0.00 in Rain Light Rain
8:53 PM 48.0 °F - 46.0 °F 93% 30.11 in 6.0 mi NNE 9.2 mph - 0.00 in   Overcast
9:45 PM 46.4 °F 41.5 °F 44.6 °F 93% 30.08 in 5.0 mi NNE 10.4 mph - N/A   Overcast
9:53 PM 46.0 °F 41.9 °F 44.1 °F 93% 30.10 in 5.0 mi North 8.1 mph - N/A   Overcast
10:53 PM 44.1 °F 38.1 °F 43.0 °F 96% 30.09 in 3.0 mi North 11.5 mph - N/A   Overcast
11:53 PM 44.1 °F 40.1 °F 44.1 °F 100% 30.08 in 3.0 mi NNE 6.9 mph - 0.00 in   Overcast